Location: Eschelberg
(48.3833°N, 14.1333°E)
Time: 11:35:04
(UTC+00:00)

Daily predictions for brighter satellites

Satellite Brightness Start Highest point End
(mag) Time Altitude Azimuth Time Altitude Azimuth Time Altitude Azimuth
Cosmos 1626 4.5 19:46:44 10° SW 19:49:51 26° WNW 19:52:59 10° NNW
ERS-1 Rocket 3.8 19:45:13 10° SE 19:49:52 39° ENE 19:54:32 10° N
Lacrosse 5 2.9 19:45:18 10° NW 19:50:12 43° NNE 19:55:04 10° E
SPOT 1/Viking Rocket 3.8 19:45:06 10° S 19:50:13 72° WSW 19:55:23 10° NNW
PSLV R/B 4.3 19:47:22 10° N 19:51:28 73° WNW 19:55:36 10° SSW
Cosmos 1140 Rocket 3.5 19:46:58 10° NNW 19:52:13 81° ENE 19:57:24 10° SSE
MetOp-B 4.2 19:50:33 10° SSE 19:55:55 87° WSW 20:01:19 10° NNW
Cosmos 2315 Rocket 4.3 19:50:10 10° SSE 19:56:15 51° E 20:02:20 10° NNE
SL-8 R/B 3.7 19:53:02 10° WSW 19:57:51 78° SSE 20:02:40 10° E
SL-24 R/B 4.2 19:55:48 10° S 20:00:02 81° WSW 20:04:35 10° NNW
Tiangong 2.5 19:58:41 10° SW 20:01:08 21° S 20:03:36 10° ESE
SL-14 R/B 4.2 19:58:09 10° SSW 20:01:55 50° WNW 20:05:44 10° N
Cosmos 1300 3.5 20:03:13 10° NNW 20:06:55 50° W 20:10:34 10° S
Cosmos 1271 Rocket 3.8 20:04:53 10° N 20:08:32 33° ENE 20:11:58 11° SE
Cosmos 1709 Rocket 4.0 20:02:50 10° N 20:09:03 80° E 20:15:17 10° SSE
Terra 2.4 20:07:16 10° SE 20:11:48 46° ENE 20:16:21 10° N
Ariane Rocket 3.7 20:06:51 10° S 20:11:50 55° W 20:16:51 10° NNW
Cosmos 1954 Rocket 4.4 20:07:21 10° NNW 20:12:34 53° ENE 20:17:26 11° SE
Meteor 2-5 Rocket 3.8 20:07:32 10° S 20:12:58 63° E 20:18:28 10° NNE
ARIANE 5 R/B 3.6 20:09:06 10° SE 20:13:10 35° ENE 20:17:14 10° N
FALCON 9 DEB 2.9 20:10:47 10° WSW 20:14:02 77° SSE 20:17:19 10° ENE
Cosmos 1943 4.1 20:17:29 10° SW 20:23:02 53° NW 20:28:35 10° NNE
USA 267 3.4 20:19:13 10° ENE 20:25:35 51° SE 20:31:54 10° SSW
Cosmos 1455 Rocket 3.4 20:25:26 10° NNW 20:29:46 66° W 20:34:03 10° S
NOSS 2-1 (C) 4.3 20:26:05 10° NW 20:30:18 56° NE 20:35:50 11° ESE
CZ-4B R/B 3.6 20:30:36 10° NNW 20:32:57 22° WNW 20:35:16 10° WSW
USA 245 4.3 20:28:49 10° S 20:33:48 53° WSW 20:37:52 10° NNW
Cosmos 1025 Rocket 3.1 20:34:01 10° SSW 20:38:16 77° W 20:42:34 10° N
NOSS 2-1 (D) 4.2 20:36:22 10° NW 20:40:41 66° NE 20:45:56 14° SE
Cosmos 1371 Rocket 4.0 20:37:30 10° SSW 20:42:44 86° ESE 20:48:03 10° NNE
Spot 2 Rocket 3.8 20:37:59 11° S 20:42:54 67° WSW 20:48:01 10° NNW
Cosmos 1452 Rocket 4.5 20:40:48 15° SSE 20:44:12 29° E 20:48:42 10° NE
Helios 1A Rocket 3.5 20:45:44 12° S 20:49:23 53° WSW 20:53:25 10° NNW
Cosmos 1607 3.9 20:43:21 10° SSW 20:49:33 71° ESE 20:55:43 10° NE
Cosmos 1455 2.3 20:49:29 10° NNW 20:53:17 76° W 20:56:08 17° S
Cosmos 1703 3.9 20:51:47 20° SSE 20:53:59 37° E 20:57:33 10° NNE
Cosmos 1980 Rocket 4.1 20:51:23 10° N 20:55:44 22° NE 21:00:02 10° E
ATLAS 2AS CENTAUR R/B 2.7 20:48:40 10° NW 20:55:53 87° SW 21:01:13 17° SE
Cosmos 1536 Rocket 3.7 20:53:22 17° S 20:56:34 57° E 21:00:50 10° NNE
Cosmos 1697 Rocket 3.8 20:55:01 10° NNW 21:00:12 35° NE 21:04:56 12° ESE
USA 234 3.3 20:54:06 10° ESE 21:00:37 82° NNE 21:07:12 10° NW
Lacrosse 4 Rocket 4.4 20:59:26 10° W 21:02:23 19° NW 21:05:20 10° N
Meteor 1-24 Rocket 4.1 20:57:45 10° SSW 21:02:59 61° WNW 21:08:21 10° N
Cosmos 1975 Rocket 4.5 20:58:58 10° SW 21:03:07 38° WNW 21:07:17 10° N
Cosmos 1624 Rocket 4.3 20:58:58 10° SSW 21:04:12 70° WNW 21:09:26 10° NNE
SPOT 5 3.7 21:00:59 11° SSW 21:05:05 39° W 21:09:12 10° NNW
Cosmos 2184 Rocket 4.0 21:05:02 10° N 21:11:15 85° E 21:15:55 19° S
Cosmos 2228 3.1 21:09:39 10° N 21:13:53 62° ENE 21:16:17 24° SSE
CZ-2C R/B 4.2 21:09:37 10° N 21:14:13 60° WNW 21:18:41 10° SSW
RESURS DK-1 3.2 21:14:05 10° NNW 21:18:03 43° NE 21:20:38 19° ESE
Lacrosse 5 rocket 1.8 21:18:45 10° WNW 21:22:27 44° SW 21:24:15 26° S
ATLAS 5 CENTAUR R/B 4.3 21:13:36 10° NW 21:22:38 26° W 21:26:13 11° SSW
Cosmos 1656 3.6 21:17:42 10° NNW 21:23:12 90° WSW 21:26:45 23° SSE
Cosmos 2056 Rocket 4.4 21:19:01 10° SW 21:24:14 51° WNW 21:29:33 10° NNE
Meteor 2-1 Rocket 4.4 21:19:02 10° N 21:24:31 62° ENE 21:27:58 23° SSE
Cosmos 1741 Rocket 4.1 21:22:58 10° NNW 21:28:19 79° ENE 21:31:37 24° SSE
ERS-1 Rocket 4.4 21:24:22 11° SSW 21:28:43 31° W 21:33:12 10° NNW
Cosmos 1726 Rocket 4.0 21:26:23 10° N 21:30:35 47° ENE 21:32:43 25° SE
Cosmos 1833 Rocket 3.2 21:27:39 23° SSE 21:30:39 41° ESE 21:35:54 10° NE
ALOS 2 4.0 21:30:06 16° ESE 21:32:41 28° ENE 21:36:25 10° N
Lacrosse 5 2.0 21:28:21 10° WNW 21:33:25 64° SW 21:36:18 25° SSE
Tiangong 3.1 21:34:57 10° WSW 21:36:05 17° SW 21:36:05 17° SW
Cosmos 2084 3.6 21:34:45 10° SW 21:38:33 62° NW 21:42:25 10° NE
NOSS 2-1 (E) 4.3 21:34:42 10° NW 21:39:18 58° SW 21:43:01 24° SSE
SL-8 R/B 3.7 21:35:34 10° W 21:40:25 89° S 21:45:16 10° E
Cosmos 968 Rocket 4.5 21:39:49 10° N 21:44:41 39° ENE 21:48:11 17° ESE
Cosmos 2082 Rocket 3.5 21:45:07 21° SE 21:47:02 25° ESE 21:51:32 10° NE
ARIANE 5 R/B 4.2 21:46:38 14° SSW 21:49:39 28° W 21:53:32 10° NW
Terra 3.6 21:46:06 11° SW 21:49:45 24° W 21:53:38 10° NW
Cosmos 2058 Rocket 3.5 21:52:05 10° N 21:56:23 52° ENE 21:58:21 29° SE
USA 276 1.7 21:58:54 64° S 21:59:00 65° SSE 22:01:54 10° ENE
Cosmos 2344 4.3 21:50:38 10° NW 21:59:26 84° NE 22:10:08 15° SE
Cosmos 1850 Rocket 4.3 21:55:14 10° NNW 22:00:21 56° WSW 22:03:00 27° S
Cosmos 2181 Rocket 4.5 21:57:56 24° SSE 22:01:11 45° E 22:07:01 10° NNE
Cosmos 1892 Rocket 3.6 22:02:20 33° S 22:04:15 70° E 22:08:39 10° NNE
GP-B 3.0 22:00:33 10° N 22:05:01 89° WNW 22:07:04 32° S
USA 267 3.6 22:02:15 10° NE 22:08:45 67° NNW 22:15:14 10° WSW
Cosmos 1408 2.5 22:13:04 47° SSE 22:13:48 63° E 22:17:13 10° NNE
Spot 4 3.8 22:11:56 32° S 22:14:10 79° WSW 22:18:59 10° NNW
COSMOS 2406 3.4 22:13:20 28° S 22:16:11 56° ESE 22:21:48 10° NE
Cosmos 1867 4.4 22:14:39 10° NNW 22:19:57 48° NE 22:24:37 13° ESE
ADEOS Rocket 3.5 22:15:50 25° SSE 22:20:19 77° ENE 22:27:55 10° NNW
ASTEX 1 4.0 22:16:33 10° N 22:21:25 52° WNW 22:24:31 21° SW
Cosmos 1331 Rocket 4.1 22:19:07 22° SSW 22:22:40 77° WNW 22:28:00 10° NNE
Cosmos 1626 Rocket 4.3 22:21:20 29° SE 22:22:41 37° E 22:26:42 10° NNE
Cosmos 2369 3.8 22:18:53 10° NNW 22:24:40 80° ENE 22:27:54 27° SE
Okean 1-7 Rocket 4.1 22:23:41 33° SE 22:25:11 47° E 22:29:29 10° NNE
Meteor 1-11 4.2 22:22:19 29° S 22:25:22 84° E 22:31:00 10° NNE
Cosmos 1452 Rocket 4.5 22:21:06 10° SW 22:26:07 45° WNW 22:31:11 10° NNE
Cosmos 1825 2.8 22:26:15 36° SE 22:27:03 41° E 22:30:36 10° NNE
SL-16 R/B 3.9 22:23:59 10° NNW 22:28:50 28° NE 22:33:39 10° ESE
Cosmos 192 4.3 22:27:13 33° S 22:29:21 70° ESE 22:34:15 10° NNE
Cosmos-2242 4.5 22:26:52 10° NNE 22:30:32 27° ENE 22:32:34 19° ESE
H-2A R/B 3.4 22:27:27 10° NNE 22:31:41 83° ESE 22:33:14 38° S
Cosmos 1980 Rocket 2.2 22:34:47 10° NNW 22:40:32 89° WSW 22:43:31 30° SSE
USA 234 3.9 22:41:26 27° S 22:44:01 37° SW 22:50:02 10° WNW
Cosmos 1697 Rocket 3.2 22:38:57 10° NW 22:44:18 45° WSW 22:46:39 29° SSW
ERS-2 2.3 22:40:46 10° NNE 22:44:19 56° ESE 22:44:58 47° SE
ATLAS 2AS CENTAUR R/B 4.2 22:40:56 10° WNW 22:45:46 20° WSW 22:48:38 15° SW
PSLV R/B 4.5 22:41:49 10° NNE 22:46:22 42° E 22:48:03 31° SE
Cosmos 1302 Rocket 3.9 22:43:52 31° SSW 22:46:28 87° ESE 22:51:43 10° NNE
Cosmos 1892 3.0 22:48:56 37° SW 22:50:08 56° WNW 22:53:51 10° N
SJ 16-02 3.3 22:50:22 10° N 22:54:00 24° NE 22:57:37 10° ESE
RESURS DK-1 3.9 22:52:34 10° NW 22:55:47 22° WSW 22:56:28 21° WSW
In-Cosmos 22 Rocket 4.2 22:52:54 30° SSW 22:55:49 83° WNW 23:01:23 10° N
SL-8 Rocket 4.4 22:54:52 10° NNW 23:00:54 52° W 23:04:12 26° SSW
Cosmos 2218 Rocket 4.4 23:00:28 10° NNW 23:06:43 56° W 23:10:07 27° SSW
Cosmos 1758 Rocket 3.8 23:07:07 37° SSE 23:08:32 56° E 23:12:48 10° NNE
ALOS 2 3.6 23:07:30 28° SW 23:08:54 35° W 23:12:57 10° NNW
Cosmos 2322 Rocket 3.5 23:05:04 10° NNW 23:10:20 38° NE 23:15:36 10° ESE
Cosmos 2278 3.7 23:04:48 10° NNW 23:10:34 87° WSW 23:13:40 29° SSE
Aureole 1 Rocket 4.4 23:04:35 10° NNW 23:11:13 81° ENE 23:16:50 22° SSE
Cosmos 2058 4.1 23:10:19 25° SE 23:11:43 32° E 23:15:27 10° NNE
Nimbus 7 Rocket 4.4 23:07:01 10° NNE 23:12:56 74° ESE 23:15:58 31° S
BREEZE-M DEB (TANK) 4.3 22:57:34 10° W 23:13:26 88° N 23:17:37 10° E
CZ-2D R/B 4.4 23:11:57 10° ENE 23:13:56 12° E 23:15:55 10° ESE
Cosmos 1833 Rocket 3.9 23:09:24 10° WSW 23:14:38 38° NW 23:19:53 10° NNE
Lacrosse 5 3.9 23:13:09 10° W 23:15:28 13° WSW 23:15:28 13° WSW
Cosmos 2084 Rocket 3.4 23:14:56 10° NW 23:18:46 56° SW 23:19:33 46° S
Cosmos 1812 Rocket 3.5 23:14:41 10° NNW 23:19:11 79° W 23:20:47 39° S
Geosat FO 4.4 23:21:57 55° S 23:22:32 70° WSW 23:26:05 10° NNW
SL-8 R/B 3.9 23:18:09 10° W 23:22:48 48° SSW 23:24:35 32° SSE
Cosmos 968 Rocket 4.4 23:21:46 10° NW 23:26:24 34° WSW 23:28:09 27° SW
Cosmos 2221 4.2 23:23:15 10° NNE 23:26:59 27° ENE 23:29:51 14° ESE
FALCON 9 DEB 4.4 23:24:06 10° WNW 23:27:14 41° NNE 23:30:22 10° E
SL-19 R/B 4.3 23:27:31 39° SE 23:28:36 64° ENE 23:32:25 10° N
Cosmos 2082 Rocket 2.6 23:26:56 22° SW 23:30:41 62° WNW 23:36:22 10° NNE
ATLAS 5 CENTAUR R/B 1.8 23:30:58 38° SE 23:31:29 40° ESE 23:35:21 10° NE
Cosmos 1633 2.6 23:31:19 48° SW 23:32:04 64° W 23:35:33 10° N
Resurs 1-4 Rocket 4.1 23:28:52 10° NE 23:32:33 19° E 23:35:51 11° SE
Cosmos 1602 Rocket 3.8 23:32:14 35° SW 23:33:52 60° WNW 23:38:09 10° N
USA 276 2.4 23:31:25 10° W 23:34:19 60° N 23:37:13 10° E
Meteor 2-2 Rocket 4.5 23:37:10 10° N 23:43:10 76° ENE 23:46:55 24° SSE
Cosmos 1486 Rocket 4.3 23:39:48 10° NNW 23:44:50 50° WSW 23:46:54 32° SSW
USA 267 4.5 23:45:09 10° ENE 23:51:15 43° N 23:57:20 10° WNW
Cosmos 2360 Rocket 3.1 23:46:34 10° NNW 23:52:06 48° NE 23:57:34 10° SE
